Regional Weather Roundup
Issued by NWS

Current Version | Previous Version | Graphics & Text | Print | Product List | Glossary On
Versions: 1 2 3 4 5 6 7 8 9 10 11 12 13 14 15 16 17 18 19 20 21 22 23 24 25 26 27 28 29 30 31 32 33 34 35 36 37 38 39 40 41 42 43 44 45 46 47 48 49 50
476
ASHW40 PHFO 201612
RWRHI

WEATHER ROUNDUP FOR HAWAII
NATIONAL WEATHER SERVICE HONOLULU HI
600 AM HST MON NOV 20 2017

THIS IS AN AUTOMATED REPORT THAT HAS NOT BEEN QUALITY CONTROLLED.

NOTE..."FAIR" INDICATES FEW OR NO CLOUDS BELOW 12,000 FEET WITH NO
SIGNIFICANT WEATHER AND/OR OBSTRUCTIONS TO VISIBILITY.

* - THESE SITES REPORT LIMITED FIELDS
# - BUOY DATA PROVIDED BY PACIFIC ISLANDS OCEAN OBSERVING SYSTEM.

HIZ001>004-201700-
KAUAI-NIIHAU-

CITY           SKY/WX    TMP DP  RH WIND       PRES   REMARKS
LIHUE APT      CLEAR     62  61  96 SW8       29.90S
PORT ALLEN*      N/A     66 N/A N/A NE7         N/A
POIPU*           N/A     66 N/A N/A NW3         N/A
PRINCEVILLE*     N/A     70 N/A N/A NW5         N/A
KOKOLE POINT*  NOT AVBL
MOLOAA DAIRY*    N/A     68  55  64 NW3G12      N/A
WAIMEA HTS*    NOT AVBL
PUU OPAE*      NOT AVBL
PUU LUA*       NOT AVBL
MAKAHA RIDGE*  NOT AVBL
$$

HIZ005>011-201700-
OAHU-

CITY           SKY/WX    TMP DP  RH WIND       PRES   REMARKS
HONOLULU       PTCLDY    68  59  73 NW8       29.87F
KALAELOA       PTCLDY    68  59  73 CALM      29.89S
KANEOHE MCB    LGT RAIN  71  63  75 NW20G26   29.85R
WHEELER FIELD  FAIR      62  61  97 N3        29.91S
BELLOWS*       NOT AVBL
KAHUKU*        NOT AVBL
WHEELER*       NOT AVBL
WAIANAE HARBOR NOT AVBL
DILLINGHAM*    NOT AVBL
KAHUKU TRN*      N/A     66  61  82 NE2G17      N/A
KAWAILOA*        N/A     63  57  82 N3G18       N/A
KII*             N/A    N/A N/A N/A SW3G14      N/A
MAKUA RANGE*     N/A     68  57  68 W6G18       N/A
OAHU FOREST NW NOT AVBL
SCHOFIELD BRK*   N/A     57  55  94 MISG        N/A
SCHOFIELD S*   NOT AVBL
WAIANAE VLY*   NOT AVBL
KUAOKALA*      NOT AVBL
HONOULIUULI*   NOT AVBL
MOKUOLOE IS*   NOT AVBL
PALEHUA*       NOT AVBL
WAIAWA PHB*    NOT AVBL
$$

HIZ012>013-201700-
MOLOKAI-

CITY           SKY/WX    TMP DP  RH WIND       PRES   REMARKS
MOLOKAI AIRPT  PTCLDY    68  60  75 NW8       29.88S
KALAUPAPA      NOT AVBL
MAKAPULAPAI*   NOT AVBL
MOLOKAI 1*     NOT AVBL
PUU ALII*      NOT AVBL
$$

HIZ016-201700-
KAHOOLAWE-

CITY           SKY/WX    TMP DP  RH WIND       PRES   REMARKS
KAHOOLAWE*     NOT AVBL
HAKIOAWA*      NOT AVBL
HONOKANAIA*    NOT AVBL
KANELOA*         N/A     64  55  72 N16G22      N/A
KEALIALALO*    NOT AVBL
LUA MAKIKA*    NOT AVBL
$$

HIZ014>015-201700-
LANAI-

CITY           SKY/WX    TMP DP  RH WIND       PRES   REMARKS
LANAI CITY     FAIR      62  57  83 N10       29.92R
LANAI 1*       NOT AVBL
$$

HIZ017>028-201700-
MAUI-

CITY           SKY/WX    TMP DP  RH WIND       PRES   REMARKS
KAHULUI        PTCLDY    66  61  84 VRB3      29.88R
KAPALUA-W MAUI PTCLDY    66  57  72 E8        29.88
HANA AIRPORT   CLEAR    N/A N/A N/A SW5       29.89R
HANA*            N/A     66 N/A N/A SW5         N/A
HALEAKALA SUMM   N/A     39  -8  13 NW21        N/A  WCI  29
MAALAEA BAY*   NOT AVBL
HALEAKALA*     NOT AVBL
KAUPO GAP*     NOT AVBL
KULA 1*          N/A    N/A N/A N/A NE5G12      N/A
$$

HIZ023>026-201700-
BIG ISLAND OF HAWAII COAST AND LOWER SLOPES-

CITY           SKY/WX    TMP DP  RH WIND       PRES   REMARKS
KAILUA KONA    CLEAR     67  53  61 E7        29.83R
HILO           CLEAR     61  53  75 SW8       29.85R
HONOKAA*         N/A     59 N/A N/A VRB1        N/A
KAWAIHAE MWT*    N/A     70 N/A N/A NE7G13      N/A
KAWAIHAE*      NOT AVBL
SOUTH POINT*     N/A     63 N/A N/A W8          N/A
UPOLU AIRPORT* NOT AVBL
KAMUELA*       MOSUNNY   46  45  93 E8        29.95R
HAKALAU*         N/A    N/A N/A N/A W5          N/A
KALOKO-HONOKO* NOT AVBL
PALI 2*          N/A     55  46  71 S6          N/A
KEALAKOMO*       N/A     70  57  64 NW3         N/A
KAUPULEHU*     NOT AVBL
KAPAPALA*        N/A     56  56 100 NW7         N/A
LOWER KAHUKU*  NOT AVBL
PUHE CS*       NOT AVBL
PUHO CS*       NOT AVBL
PTA KEAMUKU*     N/A     50  45  81 SE7         N/A
WAIKOLOA*      NOT AVBL
$$

HIZ027>028-201700-
BIG ISLAND OF HAWAII INTERIOR AND SUMMMITS-

CITY           SKY/WX    TMP DP  RH WIND       PRES   REMARKS
BRADSHAW FIELD PTCLDY    40   0  19 SE3       30.11R
MK VISITOR CEN   N/A     48 -26   4 VRB14       N/A
MAUNA KEA*       N/A     27 -29   7 S59         N/A  WCI   5
MAUNA LOA*     NOT AVBL
MAUNA LOA 1*   NOT AVBL
PTA KIPUKA*      N/A     34  14  44 W3          N/A
PTA RANGE 17*    N/A    N/A N/A N/A W7          N/A
PTA WEST*        N/A    N/A N/A N/A SE13        N/A
NENE CABIN*    NOT AVBL
AHUMOA*        NOT AVBL
PTA PORTABLE*  NOT AVBL
PUU MALI*        N/A     43 N/A N/A SW3G10      N/A
$$

HIC003-201700-
NORTHWEST ISLANDS-

CITY           SKY/WX    TMP DP  RH WIND       PRES   REMARKS
MIDWAY ISLAND  CLOUDY    72  63  73 E18       30.17R
MIDWAY NOS*    NOT AVBL
FRENCH FRIGATE NOT AVBL
$$

PHZ110>124-180-201700-
BUOY REPORTS

STATION/POSITION TIME  TEMP    WIND        PRES    WAVE   SWELL
                       AIR SEA DIR/SP/G            HT/PER HT/DIR
                 (UTC) (F)     (DEG/KT/KT) (MB)    (FT/S) (FT/D)
BUOY 51001       1550   70 77   20/ 16/ 19 1013.8R  12/12  10/ 20
BUOY 51101       1550   71 78   20/ 17/ 21 1013.8S  10/12   8/ 20
BUOY 51100       NOT AVBL
BUOY 51002       1550   77 80  340/ 14/ 19 1010.7R   8/12   7
BUOY 51003       1550   74 80   20/ 12/ 19 1011.6R   9/13   8/350
BUOY 51004       1550   77 80  360/ 12/ 16 1009.9R   9/14   8/360
WAIMEA BAY#      1502      77                N/A    11/13  10/360
MOKAPU POINT#    1534      79                N/A    10/13   8
LANAI#           NOT AVBL
BARBERS PT 2#    NOT AVBL
PAUWELA#         NOT AVBL
HILO#            1557      79                N/A    10/13   8
KANEOHE BAY#     NOT AVBL
KANEOHE BAY 2#   NOT AVBL
HANALEI#         1552      79                N/A    12/13  10
KAHULUI HARBOR   1536   71 78  350/ 13/ 18 1011.5R
HONOLULU HARBOR  1548   67 79  350/  2/  4 1012.2F
PEARL HARBOR#    1530      79                N/A     1/13   2/180
KILO NALU        NOT AVBL
HILO HARBOR      1536   64 78  200/  4/  5 1010.3R
MOKUOLOE         1536   72 75  300/  7/  8 1011.5S
NAWILIWILI       1548   65     270/  8/ 10 1012.3F
WHOTS BUOY       NOT AVBL
BUOY 51028       NOT AVBL
$$

......................KEY........................................
  SKY/WX - SKY CONDITIONS/PRESENT WEATHER
  TMP    - TEMPERATURE IN FAHRENHEIT
  DWPT   - DEWPOINT IN FAHRENHEIT
  RH     - RELATIVE HUMIDITY IN PERCENT
  WIND   - DIRECTION AND SPEED /MPH FOR ISLANDS...KTS FOR BUOYS/
  PRES   - MEAN SEA LEVEL PRESSURE IN INCHES OF HG
  VSB    - VISIBILITY IN MILES
  HX     - HEAT INDEX
  WCI    - WIND CHILL INDEX
  VRB    - VARIABLE WIND DIRECTION
  N/A    - NOT AVAILABLE




USA.gov is the U.S. government's official web portal to all federal, state and local government web resources and services.